owner,sensor,date,latitude,longitude,vertical_datum,sea_water_practical_salinity,qcFlag 
DISL,ioos:station:DISL:CATA:1,2009-11-01T00:00:00Z,30.3085,-88.1395,2.737,6.76,1111122 
DISL,ioos:station:DISL:CATA:1,2009-11-01T00:30:00Z,30.3085,-88.1395,2.756,6.97,1111122 
DISL,ioos:station:DISL:CATA:1,2009-11-01T01:00:00Z,30.3085,-88.1395,2.775,7.86,1111122 
DISL,ioos:station:DISL:CATA:1,2009-11-01T01:30:00Z,30.3085,-88.1395,2.79,7.94,1111122 
DISL,ioos:station:DISL:CATA:1,2009-11-01T02:00:00Z,30.3085,-88.1395,2.793,8.34,1111122 
DISL,ioos:station:DISL:CATA:1,2009-11-01T02:30:00Z,30.3085,-88.1395,2.792,7.94,1111122 
DISL,ioos:station:DISL:CATA:1,2009-11-01T03:00:00Z,30.3085,-88.1395,2.79,8.99,1111122 
DISL,ioos:station:DISL:CATA:1,2009-11-01T03:30:00Z,30.3085,-88.1395,2.769,10.16,1111122 
DISL,ioos:station:DISL:CATA:1,2009-11-01T04:00:00Z,30.3085,-88.1395,2.768,11.62,1111122 
DISL,ioos:station:DISL:CATA:1,2009-11-01T04:30:00Z,30.3085,-88.1395,2.746,12.1,1111122 
DISL,ioos:station:DISL:CATA:1,2009-11-01T05:00:00Z,30.3085,-88.1395,2.723,12.46,1111122 
DISL,ioos:station:DISL:CATA:1,2009-11-01T05:30:00Z,30.3085,-88.1395,2.693,11.5,1111122 
DISL,ioos:station:DISL:CATA:1,2009-11-01T06:00:00Z,30.3085,-88.1395,2.667,7.34,1111122 
DISL,ioos:station:DISL:CATA:1,2009-11-01T06:30:00Z,30.3085,-88.1395,2.637,6.63,1111122 
DISL,ioos:station:DISL:CATA:1,2009-11-01T07:00:00Z,30.3085,-88.1395,2.602,6.25,1111122 
DISL,ioos:station:DISL:CATA:1,2009-11-01T07:30:00Z,30.3085,-88.1395,2.57,6.14,1111122 
DISL,ioos:station:DISL:CATA:1,2009-11-01T08:00:00Z,30.3085,-88.1395,2.531,6.98,1111122 
DISL,ioos:station:DISL:CATA:1,2009-11-01T08:30:00Z,30.3085,-88.1395,2.489,7.08,1111122 
DISL,ioos:station:DISL:CATA:1,2009-11-01T09:00:00Z,30.3085,-88.1395,2.455,7.5,1111122 
DISL,ioos:station:DISL:CATA:1,2009-11-01T09:30:00Z,30.3085,-88.1395,2.436,6.23,1111122 
DISL,ioos:station:DISL:CATA:1,2009-11-01T10:00:00Z,30.3085,-88.1395,2.414,6.44,1111122 
DISL,ioos:station:DISL:CATA:1,2009-11-01T10:30:00Z,30.3085,-88.1395,2.404,6.71,1111122 
DISL,ioos:station:DISL:CATA:1,2009-11-01T11:00:00Z,30.3085,-88.1395,2.396,6.75,1111122 
DISL,ioos:station:DISL:CATA:1,2009-11-01T11:30:00Z,30.3085,-88.1395,2.386,6.7,1111122 
DISL,ioos:station:DISL:CATA:1,2009-11-01T12:00:00Z,30.3085,-88.1395,2.392,6.98,1111122 
DISL,ioos:station:DISL:CATA:1,2009-11-01T12:30:00Z,30.3085,-88.1395,2.408,7.51,1111122 
DISL,ioos:station:DISL:CATA:1,2009-11-01T13:00:00Z,30.3085,-88.1395,2.417,8.09,1111122 
DISL,ioos:station:DISL:CATA:1,2009-11-01T13:30:00Z,30.3085,-88.1395,2.434,8.08,1111122 
DISL,ioos:station:DISL:CATA:1,2009-11-01T14:00:00Z,30.3085,-88.1395,2.449,8.22,1111122 
DISL,ioos:station:DISL:CATA:1,2009-11-01T14:30:00Z,30.3085,-88.1395,2.463,8.01,1111122 
DISL,ioos:station:DISL:CATA:1,2009-11-01T15:00:00Z,30.3085,-88.1395,2.471,8.01,1111122 
DISL,ioos:station:DISL:CATA:1,2009-11-01T15:30:00Z,30.3085,-88.1395,2.49,7.45,1111122 
DISL,ioos:station:DISL:CATA:1,2009-11-01T16:00:00Z,30.3085,-88.1395,2.504,7.37,1111122 
DISL,ioos:station:DISL:CATA:1,2009-11-01T16:30:00Z,30.3085,-88.1395,2.517,7.27,1111122 
DISL,ioos:station:DISL:CATA:1,2009-11-01T17:00:00Z,30.3085,-88.1395,2.528,7.51,1111122 
DISL,ioos:station:DISL:CATA:1,2009-11-01T17:30:00Z,30.3085,-88.1395,2.546,7.3,1111122 
DISL,ioos:station:DISL:CATA:1,2009-11-01T18:00:00Z,30.3085,-88.1395,2.564,7.42,1111122 
DISL,ioos:station:DISL:CATA:1,2009-11-01T18:30:00Z,30.3085,-88.1395,2.575,7.19,1111122 
DISL,ioos:station:DISL:CATA:1,2009-11-01T19:00:00Z,30.3085,-88.1395,2.587,7.58,1111122 
DISL,ioos:station:DISL:CATA:1,2009-11-01T19:30:00Z,30.3085,-88.1395,2.602,8.15,1111122 
DISL,ioos:station:DISL:CATA:1,2009-11-01T20:00:00Z,30.3085,-88.1395,2.621,8.33,1111122 
DISL,ioos:station:DISL:CATA:1,2009-11-01T20:30:00Z,30.3085,-88.1395,2.642,8.68,1111122 
DISL,ioos:station:DISL:CATA:1,2009-11-01T21:00:00Z,30.3085,-88.1395,2.648,8.49,1111122 
DISL,ioos:station:DISL:CATA:1,2009-11-01T21:30:00Z,30.3085,-88.1395,2.663,8.69,1111122 
DISL,ioos:station:DISL:CATA:1,2009-11-01T22:00:00Z,30.3085,-88.1395,2.671,8.79,1111122 
DISL,ioos:station:DISL:CATA:1,2009-11-01T22:30:00Z,30.3085,-88.1395,2.685,9.2,1111122 
DISL,ioos:station:DISL:CATA:1,2009-11-01T23:00:00Z,30.3085,-88.1395,2.708,9.29,1111122 
DISL,ioos:station:DISL:CATA:1,2009-11-01T23:30:00Z,30.3085,-88.1395,2.729,9.77,1111122 
DISL,ioos:station:DISL:CATA:1,2009-11-02T00:00:00Z,30.3085,-88.1395,2.748,10.35,1111122 
DISL,ioos:station:DISL:CATA:1,2009-11-02T00:30:00Z,30.3085,-88.1395,2.77,10.47,1111122 
DISL,ioos:station:DISL:CATA:1,2009-11-02T01:00:00Z,30.3085,-88.1395,2.784,10.07,1111122 
DISL,ioos:station:DISL:CATA:1,2009-11-02T01:30:00Z,30.3085,-88.1395,2.789,10.01,1111122 
DISL,ioos:station:DISL:CATA:1,2009-11-02T02:00:00Z,30.3085,-88.1395,2.792,9.97,1111122 
DISL,ioos:station:DISL:CATA:1,2009-11-02T02:30:00Z,30.3085,-88.1395,2.802,9.95,1111122 
DISL,ioos:station:DISL:CATA:1,2009-11-02T03:00:00Z,30.3085,-88.1395,2.807,10.08,1111122 
DISL,ioos:station:DISL:CATA:1,2009-11-02T03:30:00Z,30.3085,-88.1395,2.793,10.57,1111122 
DISL,ioos:station:DISL:CATA:1,2009-11-02T04:00:00Z,30.3085,-88.1395,2.776,11.01,1111122 
DISL,ioos:station:DISL:CATA:1,2009-11-02T04:30:00Z,30.3085,-88.1395,2.751,10.95,1111122 
DISL,ioos:station:DISL:CATA:1,2009-11-02T05:00:00Z,30.3085,-88.1395,2.725,9.74,1111122 
DISL,ioos:station:DISL:CATA:1,2009-11-02T05:30:00Z,30.3085,-88.1395,2.698,9.01,1111122 
DISL,ioos:station:DISL:CATA:1,2009-11-02T06:00:00Z,30.3085,-88.1395,2.662,8.48,1111122 
DISL,ioos:station:DISL:CATA:1,2009-11-02T06:30:00Z,30.3085,-88.1395,2.627,8.25,1111122 
DISL,ioos:station:DISL:CATA:1,2009-11-02T07:00:00Z,30.3085,-88.1395,2.597,7.85,1111122 
DISL,ioos:station:DISL:CATA:1,2009-11-02T07:30:00Z,30.3085,-88.1395,2.553,8.06,1111122 
DISL,ioos:station:DISL:CATA:1,2009-11-02T08:00:00Z,30.3085,-88.1395,2.508,8.32,1111122 
DISL,ioos:station:DISL:CATA:1,2009-11-02T08:30:00Z,30.3085,-88.1395,2.474,8.15,1111122 
DISL,ioos:station:DISL:CATA:1,2009-11-02T09:00:00Z,30.3085,-88.1395,2.442,8.17,1111122 
DISL,ioos:station:DISL:CATA:1,2009-11-02T09:30:00Z,30.3085,-88.1395,2.409,8.2,1111122 
DISL,ioos:station:DISL:CATA:1,2009-11-02T10:00:00Z,30.3085,-88.1395,2.393,7.95,1111122 
DISL,ioos:station:DISL:CATA:1,2009-11-02T10:30:00Z,30.3085,-88.1395,2.371,8.05,1111122 
DISL,ioos:station:DISL:CATA:1,2009-11-02T11:00:00Z,30.3085,-88.1395,2.362,8.12,1111122 
DISL,ioos:station:DISL:CATA:1,2009-11-02T11:30:00Z,30.3085,-88.1395,2.359,8.0,1111122 
DISL,ioos:station:DISL:CATA:1,2009-11-02T12:00:00Z,30.3085,-88.1395,2.369,7.75,1111122 
DISL,ioos:station:DISL:CATA:1,2009-11-02T12:30:00Z,30.3085,-88.1395,2.381,7.75,1111122 
DISL,ioos:station:DISL:CATA:1,2009-11-02T13:00:00Z,30.3085,-88.1395,2.393,7.92,1111122 
DISL,ioos:station:DISL:CATA:1,2009-11-02T13:30:00Z,30.3085,-88.1395,2.408,8.07,1111122 
DISL,ioos:station:DISL:CATA:1,2009-11-02T14:00:00Z,30.3085,-88.1395,2.414,8.11,1111122 
DISL,ioos:station:DISL:CATA:1,2009-11-02T14:30:00Z,30.3085,-88.1395,2.414,8.05,1111122 
DISL,ioos:station:DISL:CATA:1,2009-11-02T15:00:00Z,30.3085,-88.1395,2.436,8.06,1111122 
DISL,ioos:station:DISL:CATA:1,2009-11-02T15:30:00Z,30.3085,-88.1395,2.453,8.08,1111122 
DISL,ioos:station:DISL:CATA:1,2009-11-02T16:00:00Z,30.3085,-88.1395,2.475,8.12,1111122 
DISL,ioos:station:DISL:CATA:1,2009-11-02T16:30:00Z,30.3085,-88.1395,2.49,8.0,1111122 
DISL,ioos:station:DISL:CATA:1,2009-11-02T17:00:00Z,30.3085,-88.1395,2.514,7.74,1111122 
DISL,ioos:station:DISL:CATA:1,2009-11-02T17:30:00Z,30.3085,-88.1395,2.533,7.65,1111122 
DISL,ioos:station:DISL:CATA:1,2009-11-02T18:00:00Z,30.3085,-88.1395,2.553,7.72,1111122 
DISL,ioos:station:DISL:CATA:1,2009-11-02T18:30:00Z,30.3085,-88.1395,2.586,7.8,1111122 
DISL,ioos:station:DISL:CATA:1,2009-11-02T19:00:00Z,30.3085,-88.1395,2.603,7.85,1111122 
DISL,ioos:station:DISL:CATA:1,2009-11-02T19:30:00Z,30.3085,-88.1395,2.631,7.95,1111122 
DISL,ioos:station:DISL:CATA:1,2009-11-02T20:00:00Z,30.3085,-88.1395,2.656,8.19,1111122 
DISL,ioos:station:DISL:CATA:1,2009-11-02T20:30:00Z,30.3085,-88.1395,2.67,8.11,1111122 
DISL,ioos:station:DISL:CATA:1,2009-11-02T21:00:00Z,30.3085,-88.1395,2.706,8.39,1111122 
DISL,ioos:station:DISL:CATA:1,2009-11-02T21:30:00Z,30.3085,-88.1395,2.731,8.57,1111122 
DISL,ioos:station:DISL:CATA:1,2009-11-02T22:00:00Z,30.3085,-88.1395,2.755,8.89,1111122 
DISL,ioos:station:DISL:CATA:1,2009-11-02T22:30:00Z,30.3085,-88.1395,2.778,9.44,1111122 
DISL,ioos:station:DISL:CATA:1,2009-11-02T23:00:00Z,30.3085,-88.1395,2.812,10.39,1111122 
DISL,ioos:station:DISL:CATA:1,2009-11-02T23:30:00Z,30.3085,-88.1395,2.835,10.97,1111122 
DISL,ioos:station:DISL:CATA:1,2009-11-03T00:00:00Z,30.3085,-88.1395,2.858,11.17,1111122 
DISL,ioos:station:DISL:CATA:1,2009-11-03T00:30:00Z,30.3085,-88.1395,2.876,11.25,1111122 
DISL,ioos:station:DISL:CATA:1,2009-11-03T01:00:00Z,30.3085,-88.1395,2.89,12.44,1111122 
DISL,ioos:station:DISL:CATA:1,2009-11-03T01:30:00Z,30.3085,-88.1395,2.912,12.98,1111122 
DISL,ioos:station:DISL:CATA:1,2009-11-03T02:00:00Z,30.3085,-88.1395,2.92,13.33,1111122 
DISL,ioos:station:DISL:CATA:1,2009-11-03T02:30:00Z,30.3085,-88.1395,2.932,15.08,1111122 
DISL,ioos:station:DISL:CATA:1,2009-11-03T03:00:00Z,30.3085,-88.1395,2.915,15.89,1111122 
DISL,ioos:station:DISL:CATA:1,2009-11-03T03:30:00Z,30.3085,-88.1395,2.913,17.65,1111122 
DISL,ioos:station:DISL:CATA:1,2009-11-03T04:00:00Z,30.3085,-88.1395,2.898,18.36,1111122 
DISL,ioos:station:DISL:CATA:1,2009-11-03T04:30:00Z,30.3085,-88.1395,2.876,18.56,1111122 
DISL,ioos:station:DISL:CATA:1,2009-11-03T05:00:00Z,30.3085,-88.1395,2.842,18.65,1111122 
DISL,ioos:station:DISL:CATA:1,2009-11-03T05:30:00Z,30.3085,-88.1395,2.814,17.63,1111122 
DISL,ioos:station:DISL:CATA:1,2009-11-03T06:00:00Z,30.3085,-88.1395,2.805,9.65,1111122 
DISL,ioos:station:DISL:CATA:1,2009-11-03T06:30:00Z,30.3085,-88.1395,2.781,8.07,1111122 
DISL,ioos:station:DISL:CATA:1,2009-11-03T07:00:00Z,30.3085,-88.1395,2.735,7.54,1111122 
DISL,ioos:station:DISL:CATA:1,2009-11-03T07:30:00Z,30.3085,-88.1395,2.69,7.35,1111122 
DISL,ioos:station:DISL:CATA:1,2009-11-03T08:00:00Z,30.3085,-88.1395,2.641,7.41,1111122 
DISL,ioos:station:DISL:CATA:1,2009-11-03T08:30:00Z,30.3085,-88.1395,2.599,7.63,1111122 
DISL,ioos:station:DISL:CATA:1,2009-11-03T09:00:00Z,30.3085,-88.1395,2.535,7.78,1111122 
DISL,ioos:station:DISL:CATA:1,2009-11-03T09:30:00Z,30.3085,-88.1395,2.5,7.57,1111122 
DISL,ioos:station:DISL:CATA:1,2009-11-03T10:00:00Z,30.3085,-88.1395,2.456,7.11,1111122 
DISL,ioos:station:DISL:CATA:1,2009-11-03T10:30:00Z,30.3085,-88.1395,2.423,7.21,1111122 
DISL,ioos:station:DISL:CATA:1,2009-11-03T11:00:00Z,30.3085,-88.1395,2.389,7.33,1111122 
DISL,ioos:station:DISL:CATA:1,2009-11-03T11:30:00Z,30.3085,-88.1395,2.378,7.3,1111122 
DISL,ioos:station:DISL:CATA:1,2009-11-03T12:00:00Z,30.3085,-88.1395,2.369,7.3,1111122 
DISL,ioos:station:DISL:CATA:1,2009-11-03T12:30:00Z,30.3085,-88.1395,2.358,7.24,1111122 
DISL,ioos:station:DISL:CATA:1,2009-11-03T13:00:00Z,30.3085,-88.1395,2.359,6.97,1111122 
DISL,ioos:station:DISL:CATA:1,2009-11-03T13:30:00Z,30.3085,-88.1395,2.374,6.92,1111122 
DISL,ioos:station:DISL:CATA:1,2009-11-03T14:00:00Z,30.3085,-88.1395,2.39,6.67,1111122 
DISL,ioos:station:DISL:CATA:1,2009-11-03T14:30:00Z,30.3085,-88.1395,2.396,6.57,1111122 
DISL,ioos:station:DISL:CATA:1,2009-11-03T15:00:00Z,30.3085,-88.1395,2.391,6.47,1111122 
DISL,ioos:station:DISL:CATA:1,2009-11-03T15:30:00Z,30.3085,-88.1395,2.412,6.49,1111122 
DISL,ioos:station:DISL:CATA:1,2009-11-03T16:00:00Z,30.3085,-88.1395,2.437,6.51,1111122 
DISL,ioos:station:DISL:CATA:1,2009-11-03T16:30:00Z,30.3085,-88.1395,2.441,6.75,1111122 
DISL,ioos:station:DISL:CATA:1,2009-11-03T17:00:00Z,30.3085,-88.1395,2.438,6.58,1111122 
DISL,ioos:station:DISL:CATA:1,2009-11-03T17:30:00Z,30.3085,-88.1395,2.446,6.36,1111122 
DISL,ioos:station:DISL:CATA:1,2009-11-03T18:00:00Z,30.3085,-88.1395,2.459,6.75,1111122 
DISL,ioos:station:DISL:CATA:1,2009-11-03T18:30:00Z,30.3085,-88.1395,2.479,6.85,1111122 
DISL,ioos:station:DISL:CATA:1,2009-11-03T19:00:00Z,30.3085,-88.1395,2.497,6.85,1111122 
DISL,ioos:station:DISL:CATA:1,2009-11-03T19:30:00Z,30.3085,-88.1395,2.525,6.65,1111122 
DISL,ioos:station:DISL:CATA:1,2009-11-03T20:00:00Z,30.3085,-88.1395,2.565,6.49,1111122 
DISL,ioos:station:DISL:CATA:1,2009-11-03T20:30:00Z,30.3085,-88.1395,2.598,6.66,1111122 
DISL,ioos:station:DISL:CATA:1,2009-11-03T21:00:00Z,30.3085,-88.1395,2.625,6.93,1111122 
DISL,ioos:station:DISL:CATA:1,2009-11-03T21:30:00Z,30.3085,-88.1395,2.655,7.34,1111122 
DISL,ioos:station:DISL:CATA:1,2009-11-03T22:00:00Z,30.3085,-88.1395,2.693,9.33,1111122 
DISL,ioos:station:DISL:CATA:1,2009-11-03T22:30:00Z,30.3085,-88.1395,2.734,10.32,1111122 
DISL,ioos:station:DISL:CATA:1,2009-11-03T23:00:00Z,30.3085,-88.1395,2.762,10.61,1111122 
DISL,ioos:station:DISL:CATA:1,2009-11-03T23:30:00Z,30.3085,-88.1395,2.795,11.04,1111122 
DISL,ioos:station:DISL:CATA:1,2009-11-04T00:00:00Z,30.3085,-88.1395,2.81,11.91,1111122 
DISL,ioos:station:DISL:CATA:1,2009-11-04T00:30:00Z,30.3085,-88.1395,2.854,12.52,1111122 
DISL,ioos:station:DISL:CATA:1,2009-11-04T01:00:00Z,30.3085,-88.1395,2.89,13.75,1111122 
DISL,ioos:station:DISL:CATA:1,2009-11-04T01:30:00Z,30.3085,-88.1395,2.909,16.13,1111122 
DISL,ioos:station:DISL:CATA:1,2009-11-04T02:00:00Z,30.3085,-88.1395,2.927,18.04,1111122 
DISL,ioos:station:DISL:CATA:1,2009-11-04T02:30:00Z,30.3085,-88.1395,2.943,18.8,1111122 
DISL,ioos:station:DISL:CATA:1,2009-11-04T03:00:00Z,30.3085,-88.1395,2.952,19.32,1111122 
DISL,ioos:station:DISL:CATA:1,2009-11-04T03:30:00Z,30.3085,-88.1395,2.956,19.78,1111122 
DISL,ioos:station:DISL:CATA:1,2009-11-04T04:00:00Z,30.3085,-88.1395,2.955,20.59,1111122 
DISL,ioos:station:DISL:CATA:1,2009-11-04T04:30:00Z,30.3085,-88.1395,2.949,21.48,1111122 
DISL,ioos:station:DISL:CATA:1,2009-11-04T05:00:00Z,30.3085,-88.1395,2.937,22.34,1111122 
DISL,ioos:station:DISL:CATA:1,2009-11-04T05:30:00Z,30.3085,-88.1395,2.925,22.54,1111122 
DISL,ioos:station:DISL:CATA:1,2009-11-04T06:00:00Z,30.3085,-88.1395,2.895,22.5,1111122 
DISL,ioos:station:DISL:CATA:1,2009-11-04T06:30:00Z,30.3085,-88.1395,2.865,22.65,1111122 
DISL,ioos:station:DISL:CATA:1,2009-11-04T07:00:00Z,30.3085,-88.1395,2.838,22.29,1111122 
DISL,ioos:station:DISL:CATA:1,2009-11-04T07:30:00Z,30.3085,-88.1395,2.815,13.28,1111122 
DISL,ioos:station:DISL:CATA:1,2009-11-04T08:00:00Z,30.3085,-88.1395,2.774,8.3,1111122 
DISL,ioos:station:DISL:CATA:1,2009-11-04T08:30:00Z,30.3085,-88.1395,2.711,8.03,1111122 
DISL,ioos:station:DISL:CATA:1,2009-11-04T09:00:00Z,30.3085,-88.1395,2.672,8.03,1111122 
DISL,ioos:station:DISL:CATA:1,2009-11-04T09:30:00Z,30.3085,-88.1395,2.618,7.99,1111122 
DISL,ioos:station:DISL:CATA:1,2009-11-04T10:00:00Z,30.3085,-88.1395,2.57,7.4,1111122 
DISL,ioos:station:DISL:CATA:1,2009-11-04T10:30:00Z,30.3085,-88.1395,2.521,6.81,1111122 
DISL,ioos:station:DISL:CATA:1,2009-11-04T11:00:00Z,30.3085,-88.1395,2.492,6.56,1111122 
DISL,ioos:station:DISL:CATA:1,2009-11-04T11:30:00Z,30.3085,-88.1395,2.46,6.09,1111122 
DISL,ioos:station:DISL:CATA:1,2009-11-04T12:00:00Z,30.3085,-88.1395,2.435,6.12,1111122 
DISL,ioos:station:DISL:CATA:1,2009-11-04T12:30:00Z,30.3085,-88.1395,2.418,5.98,1111122 
DISL,ioos:station:DISL:CATA:1,2009-11-04T13:00:00Z,30.3085,-88.1395,2.403,5.85,1111122 
DISL,ioos:station:DISL:CATA:1,2009-11-04T13:30:00Z,30.3085,-88.1395,2.383,5.86,1111122 
DISL,ioos:station:DISL:CATA:1,2009-11-04T14:00:00Z,30.3085,-88.1395,2.379,5.97,1111122 
DISL,ioos:station:DISL:CATA:1,2009-11-04T14:30:00Z,30.3085,-88.1395,2.379,6.01,1111122 
DISL,ioos:station:DISL:CATA:1,2009-11-04T15:00:00Z,30.3085,-88.1395,2.367,6.06,1111122 
DISL,ioos:station:DISL:CATA:1,2009-11-04T15:30:00Z,30.3085,-88.1395,2.371,6.02,1111122 
DISL,ioos:station:DISL:CATA:1,2009-11-04T16:00:00Z,30.3085,-88.1395,2.395,6.0,1111122 
DISL,ioos:station:DISL:CATA:1,2009-11-04T16:30:00Z,30.3085,-88.1395,2.414,5.99,1111122 
DISL,ioos:station:DISL:CATA:1,2009-11-04T17:00:00Z,30.3085,-88.1395,2.427,6.0,1111122 
DISL,ioos:station:DISL:CATA:1,2009-11-04T17:30:00Z,30.3085,-88.1395,2.456,6.01,1111122 
DISL,ioos:station:DISL:CATA:1,2009-11-04T18:00:00Z,30.3085,-88.1395,2.477,6.02,1111122 
DISL,ioos:station:DISL:CATA:1,2009-11-04T18:30:00Z,30.3085,-88.1395,2.489,6.0,1111122 
DISL,ioos:station:DISL:CATA:1,2009-11-04T19:00:00Z,30.3085,-88.1395,2.51,5.95,1111122 
DISL,ioos:station:DISL:CATA:1,2009-11-04T19:30:00Z,30.3085,-88.1395,2.541,6.03,1111122 
DISL,ioos:station:DISL:CATA:1,2009-11-04T20:00:00Z,30.3085,-88.1395,2.564,6.08,1111122 
DISL,ioos:station:DISL:CATA:1,2009-11-04T20:30:00Z,30.3085,-88.1395,2.589,6.13,1111122 
DISL,ioos:station:DISL:CATA:1,2009-11-04T21:00:00Z,30.3085,-88.1395,2.612,7.35,1111122 
DISL,ioos:station:DISL:CATA:1,2009-11-04T21:30:00Z,30.3085,-88.1395,2.649,9.29,1111122 
DISL,ioos:station:DISL:CATA:1,2009-11-04T22:00:00Z,30.3085,-88.1395,2.689,9.46,1111122 
DISL,ioos:station:DISL:CATA:1,2009-11-04T22:30:00Z,30.3085,-88.1395,2.717,9.8,1111122 
DISL,ioos:station:DISL:CATA:1,2009-11-04T23:00:00Z,30.3085,-88.1395,2.762,10.34,1111122 
DISL,ioos:station:DISL:CATA:1,2009-11-04T23:30:00Z,30.3085,-88.1395,2.803,10.73,1111122 
DISL,ioos:station:DISL:CATA:1,2009-11-05T00:00:00Z,30.3085,-88.1395,2.844,11.77,1111122 
DISL,ioos:station:DISL:CATA:1,2009-11-05T00:30:00Z,30.3085,-88.1395,2.884,12.31,1111122 
DISL,ioos:station:DISL:CATA:1,2009-11-05T01:00:00Z,30.3085,-88.1395,2.918,13.01,1111122 
DISL,ioos:station:DISL:CATA:1,2009-11-05T01:30:00Z,30.3085,-88.1395,2.962,13.62,1111122 
DISL,ioos:station:DISL:CATA:1,2009-11-05T02:00:00Z,30.3085,-88.1395,2.998,14.48,1111122 
DISL,ioos:station:DISL:CATA:1,2009-11-05T02:30:00Z,30.3085,-88.1395,3.017,15.35,1111122 
DISL,ioos:station:DISL:CATA:1,2009-11-05T03:00:00Z,30.3085,-88.1395,3.03,15.95,1111122 
DISL,ioos:station:DISL:CATA:1,2009-11-05T03:30:00Z,30.3085,-88.1395,3.036,16.03,1111122 
DISL,ioos:station:DISL:CATA:1,2009-11-05T04:00:00Z,30.3085,-88.1395,3.051,17.24,1111122 
DISL,ioos:station:DISL:CATA:1,2009-11-05T04:30:00Z,30.3085,-88.1395,3.047,18.73,1111122 
DISL,ioos:station:DISL:CATA:1,2009-11-05T05:00:00Z,30.3085,-88.1395,3.028,20.24,1111122 
DISL,ioos:station:DISL:CATA:1,2009-11-05T05:30:00Z,30.3085,-88.1395,3.024,21.5,1111122 
DISL,ioos:station:DISL:CATA:1,2009-11-05T06:00:00Z,30.3085,-88.1395,2.994,21.88,1111122 
DISL,ioos:station:DISL:CATA:1,2009-11-05T06:30:00Z,30.3085,-88.1395,2.977,22.02,1111122 
DISL,ioos:station:DISL:CATA:1,2009-11-05T07:00:00Z,30.3085,-88.1395,2.946,22.19,1111122 
DISL,ioos:station:DISL:CATA:1,2009-11-05T07:30:00Z,30.3085,-88.1395,2.913,22.18,1111122 
DISL,ioos:station:DISL:CATA:1,2009-11-05T08:00:00Z,30.3085,-88.1395,2.868,22.27,1111122 
DISL,ioos:station:DISL:CATA:1,2009-11-05T08:30:00Z,30.3085,-88.1395,2.838,10.89,1111122 
DISL,ioos:station:DISL:CATA:1,2009-11-05T09:00:00Z,30.3085,-88.1395,2.799,6.9,1111122 
DISL,ioos:station:DISL:CATA:1,2009-11-05T09:30:00Z,30.3085,-88.1395,2.747,7.25,1111122 
DISL,ioos:station:DISL:CATA:1,2009-11-05T10:00:00Z,30.3085,-88.1395,2.692,6.14,1111122 
DISL,ioos:station:DISL:CATA:1,2009-11-05T10:30:00Z,30.3085,-88.1395,2.639,5.88,1111122 
DISL,ioos:station:DISL:CATA:1,2009-11-05T11:00:00Z,30.3085,-88.1395,2.59,5.94,1111122 
DISL,ioos:station:DISL:CATA:1,2009-11-05T11:30:00Z,30.3085,-88.1395,2.553,5.83,1111122 
DISL,ioos:station:DISL:CATA:1,2009-11-05T12:00:00Z,30.3085,-88.1395,2.512,5.67,1111122 
DISL,ioos:station:DISL:CATA:1,2009-11-05T12:30:00Z,30.3085,-88.1395,2.481,5.49,1111122 
DISL,ioos:station:DISL:CATA:1,2009-11-05T13:00:00Z,30.3085,-88.1395,2.454,5.45,1111122 
DISL,ioos:station:DISL:CATA:1,2009-11-05T13:30:00Z,30.3085,-88.1395,2.428,5.5,1111122 
DISL,ioos:station:DISL:CATA:1,2009-11-05T14:00:00Z,30.3085,-88.1395,2.399,5.6,1111122 
DISL,ioos:station:DISL:CATA:1,2009-11-05T14:30:00Z,30.3085,-88.1395,2.372,5.73,1111122 
DISL,ioos:station:DISL:CATA:1,2009-11-05T15:00:00Z,30.3085,-88.1395,2.352,5.76,1111122 
DISL,ioos:station:DISL:CATA:1,2009-11-05T15:30:00Z,30.3085,-88.1395,2.333,5.91,1111122 
DISL,ioos:station:DISL:CATA:1,2009-11-05T16:00:00Z,30.3085,-88.1395,2.336,5.92,1111122 
DISL,ioos:station:DISL:CATA:1,2009-11-05T16:30:00Z,30.3085,-88.1395,2.343,5.97,1111122 
DISL,ioos:station:DISL:CATA:1,2009-11-05T17:00:00Z,30.3085,-88.1395,2.351,5.99,1111122 
DISL,ioos:station:DISL:CATA:1,2009-11-05T17:30:00Z,30.3085,-88.1395,2.355,6.0,1111122 
DISL,ioos:station:DISL:CATA:1,2009-11-05T18:00:00Z,30.3085,-88.1395,2.369,6.03,1111122 
DISL,ioos:station:DISL:CATA:1,2009-11-05T18:30:00Z,30.3085,-88.1395,2.384,6.03,1111122 
DISL,ioos:station:DISL:CATA:1,2009-11-05T19:00:00Z,30.3085,-88.1395,2.421,6.05,1111122 
DISL,ioos:station:DISL:CATA:1,2009-11-05T19:30:00Z,30.3085,-88.1395,2.458,6.03,1111122 
DISL,ioos:station:DISL:CATA:1,2009-11-05T20:00:00Z,30.3085,-88.1395,2.49,6.05,1111122 
DISL,ioos:station:DISL:CATA:1,2009-11-05T20:30:00Z,30.3085,-88.1395,2.507,5.97,1111122 
DISL,ioos:station:DISL:CATA:1,2009-11-05T21:00:00Z,30.3085,-88.1395,2.529,6.02,1111122 
DISL,ioos:station:DISL:CATA:1,2009-11-05T21:30:00Z,30.3085,-88.1395,2.555,6.09,1111122 
DISL,ioos:station:DISL:CATA:1,2009-11-05T22:00:00Z,30.3085,-88.1395,2.594,6.13,1111122 
DISL,ioos:station:DISL:CATA:1,2009-11-05T22:30:00Z,30.3085,-88.1395,2.636,6.19,1111122 
DISL,ioos:station:DISL:CATA:1,2009-11-05T23:00:00Z,30.3085,-88.1395,2.678,6.2,1111122 
DISL,ioos:station:DISL:CATA:1,2009-11-05T23:30:00Z,30.3085,-88.1395,2.722,6.66,1111122 
DISL,ioos:station:DISL:CATA:1,2009-11-06T00:00:00Z,30.3085,-88.1395,2.755,7.68,1111122 
DISL,ioos:station:DISL:CATA:1,2009-11-06T00:30:00Z,30.3085,-88.1395,2.782,8.23,1111122 
DISL,ioos:station:DISL:CATA:1,2009-11-06T01:00:00Z,30.3085,-88.1395,2.824,8.27,1111122 
DISL,ioos:station:DISL:CATA:1,2009-11-06T01:30:00Z,30.3085,-88.1395,2.857,9.5,1111122 
DISL,ioos:station:DISL:CATA:1,2009-11-06T02:00:00Z,30.3085,-88.1395,2.896,11.63,1111122 
DISL,ioos:station:DISL:CATA:1,2009-11-06T02:30:00Z,30.3085,-88.1395,2.911,14.29,1111122 
DISL,ioos:station:DISL:CATA:1,2009-11-06T03:00:00Z,30.3085,-88.1395,2.939,15.23,1111122 
DISL,ioos:station:DISL:CATA:1,2009-11-06T03:30:00Z,30.3085,-88.1395,2.969,17.01,1111122 
DISL,ioos:station:DISL:CATA:1,2009-11-06T04:00:00Z,30.3085,-88.1395,2.969,19.82,1111122 
DISL,ioos:station:DISL:CATA:1,2009-11-06T04:30:00Z,30.3085,-88.1395,2.984,20.72,1111122 
DISL,ioos:station:DISL:CATA:1,2009-11-06T05:00:00Z,30.3085,-88.1395,2.987,21.74,1111122 
DISL,ioos:station:DISL:CATA:1,2009-11-06T05:30:00Z,30.3085,-88.1395,2.992,21.94,1111122 
DISL,ioos:station:DISL:CATA:1,2009-11-06T06:00:00Z,30.3085,-88.1395,2.98,22.28,1111122 
DISL,ioos:station:DISL:CATA:1,2009-11-06T06:30:00Z,30.3085,-88.1395,2.979,22.24,1111122 
DISL,ioos:station:DISL:CATA:1,2009-11-06T07:00:00Z,30.3085,-88.1395,2.953,22.26,1111122 
DISL,ioos:station:DISL:CATA:1,2009-11-06T07:30:00Z,30.3085,-88.1395,2.939,22.6,1111122 
DISL,ioos:station:DISL:CATA:1,2009-11-06T08:00:00Z,30.3085,-88.1395,2.904,22.56,1111122 
DISL,ioos:station:DISL:CATA:1,2009-11-06T08:30:00Z,30.3085,-88.1395,2.86,22.6,1111122 
DISL,ioos:station:DISL:CATA:1,2009-11-06T09:00:00Z,30.3085,-88.1395,2.83,17.28,1111122 
DISL,ioos:station:DISL:CATA:1,2009-11-06T09:30:00Z,30.3085,-88.1395,2.794,8.01,1111122 
DISL,ioos:station:DISL:CATA:1,2009-11-06T10:00:00Z,30.3085,-88.1395,2.744,7.11,1111122 
DISL,ioos:station:DISL:CATA:1,2009-11-06T10:30:00Z,30.3085,-88.1395,2.684,7.57,1111122 
DISL,ioos:station:DISL:CATA:1,2009-11-06T11:00:00Z,30.3085,-88.1395,2.631,6.91,1111122 
DISL,ioos:station:DISL:CATA:1,2009-11-06T11:30:00Z,30.3085,-88.1395,2.586,6.82,1111122 
DISL,ioos:station:DISL:CATA:1,2009-11-06T12:00:00Z,30.3085,-88.1395,2.543,6.83,1111122 
DISL,ioos:station:DISL:CATA:1,2009-11-06T12:30:00Z,30.3085,-88.1395,2.499,6.98,1111122 
DISL,ioos:station:DISL:CATA:1,2009-11-06T13:00:00Z,30.3085,-88.1395,2.465,6.99,1111122 
DISL,ioos:station:DISL:CATA:1,2009-11-06T13:30:00Z,30.3085,-88.1395,2.433,6.97,1111122 
DISL,ioos:station:DISL:CATA:1,2009-11-06T14:00:00Z,30.3085,-88.1395,2.401,6.99,1111122 
DISL,ioos:station:DISL:CATA:1,2009-11-06T14:30:00Z,30.3085,-88.1395,2.372,6.91,1111122 
DISL,ioos:station:DISL:CATA:1,2009-11-06T15:00:00Z,30.3085,-88.1395,2.346,6.91,1111122 